GFSGL_500_spd_021.txt.gz
Wind_Speed
70 72 74 75 77 79 80 82 85 89 91 91 91 87 82 75 69 67 59 54 52 48 46 47 49 51 57 61 67 68 74 79 81 77 80 81 78 75 73 71 69 68 68
73 76 77 78 78 80 85 88 89 90 90 91 85 76 66 57 51 49 46 48 46 47 47 47 47 49 52 56 60 64 67 70 73 74 67 66 64 63 63 64 64 64 64
75 76 76 76 82 86 89 92 93 91 86 75 66 58 45 41 41 42 43 44 45 46 47 48 51 51 52 54 55 56 56 58 61 63 60 61 62 61 61 62 63 63 65
78 77 79 82 85 90 95 93 87 78 67 60 51 43 42 45 45 46 48 49 51 51 50 48 46 46 48 51 52 54 55 57 59 62 62 62 64 64 64 65 66 67 67
76 80 84 84 87 92 93 84 72 65 56 48 43 43 45 48 49 50 50 48 46 44 44 45 47 49 50 50 50 52 54 57 58 60 60 59 60 62 63 63 65 68 70
83 86 92 95 94 94 82 69 63 53 48 46 45 45 46 46 47 47 45 44 43 43 44 46 47 48 50 50 51 53 53 53 54 56 53 47 41 40 39 41 45 50 59
89 93 92 91 92 74 65 57 52 51 50 48 46 44 44 44 44 44 44 43 43 45 46 46 47 47 47 48 47 47 48 44 35 33 32 33 34 38 39 39 39 38 37
86 87 91 84 69 61 53 51 51 51 49 48 48 49 49 50 50 49 48 48 48 48 47 47 45 44 45 43 42 37 29 32 38 41 40 39 40 41 42 44 44 40 39
89 88 82 67 54 50 52 51 49 51 52 54 55 56 56 55 56 55 53 51 50 49 46 44 42 39 38 36 27 25 30 33 36 36 34 31 31 34 37 40 40 44 41
86 78 65 52 49 50 49 52 54 56 58 59 58 57 57 55 55 53 51 50 47 43 40 38 35 32 27 23 23 24 24 29 29 29 27 25 25 25 26 27 27 32 42
74 63 53 49 50 50 52 55 57 58 58 55 53 52 51 49 47 45 43 40 35 29 29 28 25 21 20 17 16 16 16 18 18 16 16 18 18 18 21 24 27 29 30
63 54 49 49 48 50 53 56 58 56 52 49 46 43 41 40 40 38 36 30 23 20 19 17 16 15 12 13 10 3 9 14 13 11 10 12 17 21 24 27 29 31 32
55 48 48 46 48 51 54 57 56 52 47 42 41 38 36 36 35 33 30 20 14 13 12 11 10 10 12 8 3 4 9 13 14 14 14 15 16 18 21 23 26 29 26
47 46 44 46 49 51 54 56 52 47 43 42 38 34 31 29 27 26 20 11 8 9 8 7 7 5 5 5 1 4 7 11 14 15 16 14 16 20 24 26 27 28 26
44 43 43 46 48 49 53 53 49 46 43 39 35 32 28 24 21 18 10 4 8 8 5 2 2 1 5 5 2 5 7 9 13 17 19 20 19 17 17 15 16 16 22
41 40 43 46 46 48 50 50 47 43 39 37 34 29 23 17 13 11 3 7 9 6 3 2 1 4 8 8 2 4 6 10 13 15 19 23 25 25 21 15 10 9 8
37 37 42 44 43 46 48 47 39 37 38 35 30 24 20 15 12 5 4 10 8 4 3 3 3 6 8 6 3 1 5 8 12 13 16 20 24 28 27 21 13 10 10
32 36 41 43 41 44 46 44 36 33 32 30 28 22 19 15 6 4 10 10 6 3 2 5 5 6 6 6 3 1 4 7 11 13 14 18 22 25 28 28 21 14 10
29 34 41 42 40 43 44 42 34 32 30 29 26 24 16 7 7 4 10 10 6 3 3 3 4 4 5 3 2 2 3 6 9 10 12 15 19 22 25 27 28 24 20
27 34 40 40 40 41 42 40 33 31 30 29 25 21 13 6 7 7 11 11 8 4 3 3 2 2 1 1 1 1 3 5 6 8 10 13 17 20 21 23 25 26 25
27 34 39 39 39 39 40 38 34 29 29 28 24 18 10 8 7 9 12 12 11 8 4 3 2 1 1 1 1 2 3 5 7 9 11 12 14 18 18 18 19 22 23
28 34 38 37 38 38 39 35 33 29 28 26 23 18 10 8 7 8 14 13 13 12 10 7 5 4 2 1 3 4 5 6 8 9 11 11 13 15 15 16 16 16 18
28 33 37 36 37 38 38 33 32 29 26 25 23 18 13 9 7 6 14 16 15 15 15 13 11 9 7 6 6 6 7 8 9 10 11 12 12 12 13 14 14 14 14
29 33 35 35 37 38 37 32 30 30 26 24 22 19 14 11 10 8 8 18 19 18 18 17 17 15 13 12 11 11 11 12 12 13 14 14 14 14 13 12 12 11 12
30 32 33 35 37 38 35 31 28 28 27 24 21 20 16 12 12 10 9 10 19 23 21 21 20 20 19 18 17 17 16 17 17 16 17 18 16 16 15 14 12 12 11
29 30 32 36 38 36 32 30 28 27 28 25 22 19 19 14 11 12 10 10 11 18 24 24 23 22 22 22 21 21 21 21 21 21 21 20 19 17 17 16 15 14 13

GFSGL_500_spd_024.txt.gz
Wind_Speed
69 69 73 76 77 78 78 79 81 85 86 89 87 88 81 74 69 64 59 55 53 52 50 48 47 46 47 49 58 61 62 65 67 65 68 70 70 70 72 76 76 78 79
72 73 77 77 79 78 79 82 86 88 91 90 82 72 67 60 54 49 47 45 46 48 50 49 47 47 48 48 50 51 56 63 72 76 73 72 72 73 73 75 75 76 78
74 77 80 83 84 86 85 87 90 91 88 78 69 60 52 47 46 46 47 48 48 47 48 48 48 49 48 49 50 51 51 53 56 59 56 59 62 64 66 69 72 77 79
78 82 87 87 86 91 91 90 90 87 73 65 54 49 47 47 47 48 49 50 50 51 50 49 48 47 46 46 45 44 45 47 50 53 52 51 56 58 60 61 64 66 68
83 88 92 94 93 92 91 91 81 68 58 53 51 50 51 50 47 45 46 46 47 47 47 46 46 45 44 44 43 44 45 47 50 53 52 52 54 57 59 60 63 65 66
90 91 92 95 92 89 85 74 62 53 53 53 52 51 51 51 49 50 48 48 47 47 47 47 45 43 42 42 42 43 47 48 49 49 48 47 48 52 53 54 56 58 61
89 93 94 89 87 84 74 60 52 52 51 52 53 54 55 56 54 54 53 53 52 51 50 50 49 47 46 45 45 46 46 45 44 44 44 41 38 37 38 37 36 37 38
90 89 85 84 80 72 60 51 51 51 52 54 57 58 58 58 56 55 53 52 51 52 52 51 49 47 46 44 42 41 39 38 39 36 32 33 36 39 41 42 43 45 44
86 82 80 73 68 61 53 51 50 52 54 57 60 60 58 55 54 53 51 50 48 46 44 44 45 44 41 39 37 33 30 25 27 32 34 34 33 36 37 38 37 41 44
78 74 71 68 60 53 50 49 51 53 55 59 60 57 53 49 48 47 45 43 40 37 36 35 35 33 31 30 26 20 19 23 22 24 25 24 24 28 31 32 34 32 33
72 70 68 62 54 49 48 50 52 53 56 59 57 51 47 46 45 44 41 37 33 28 27 27 25 22 21 18 14 15 12 11 10 11 12 11 11 14 20 22 24 25 26
69 66 60 55 48 46 47 50 51 53 57 57 51 47 43 42 40 38 36 32 27 21 19 18 15 13 11 11 10 8 11 7 5 7 9 11 12 14 18 23 28 30 32
63 57 54 48 45 44 47 50 50 54 57 52 45 40 39 39 36 34 32 27 20 13 8 8 8 8 9 7 8 9 9 2 4 7 10 12 14 17 21 26 30 32 33
55 52 49 43 41 43 47 48 49 54 54 46 39 37 35 33 31 29 25 17 9 3 6 8 8 9 9 10 9 7 4 2 5 9 12 14 15 15 16 17 22 26 28
54 49 42 38 38 42 47 46 49 53 49 40 36 33 29 26 26 24 19 11 1 5 6 6 4 4 7 10 11 5 4 4 5 7 11 14 17 19 20 21 17 13 13
47 39 35 33 36 42 45 44 47 50 44 37 34 31 27 27 24 18 10 4 4 4 3 3 1 6 8 10 9 6 5 4 4 6 9 12 16 20 24 25 22 15 10
33 29 29 29 35 42 43 43 46 46 39 35 34 32 28 25 19 10 7 4 4 2 1 3 3 8 10 9 8 7 5 4 3 4 7 11 14 18 22 25 26 23 14
21 26 23 28 35 40 41 41 43 42 37 34 32 31 27 20 13 10 4 6 3 2 1 3 4 7 9 9 9 8 5 3 2 2 5 9 12 15 19 22 25 27 23
22 21 22 29 35 39 39 40 42 40 37 32 31 30 26 16 11 9 8 8 5 1 2 3 4 5 7 8 8 7 5 4 2 0 4 8 10 13 16 19 21 23 26
20 18 23 30 36 38 38 39 41 38 36 31 29 28 25 15 12 8 10 11 8 5 2 2 3 4 4 5 5 5 4 4 3 2 5 7 10 12 13 16 18 19 21
18 19 25 31 36 36 38 39 40 37 34 32 27 26 24 17 12 10 12 14 13 10 6 5 4 4 4 4 4 5 5 5 3 3 5 7 8 9 11 13 15 16 17
19 22 27 31 34 36 38 39 38 35 32 31 27 24 23 19 13 12 11 17 16 16 13 11 8 7 6 5 4 4 4 4 3 4 5 6 7 8 9 11 12 12 12
21 24 28 31 33 36 39 39 35 33 31 30 29 24 22 20 16 14 12 15 20 18 18 17 15 13 12 10 9 9 8 8 7 6 7 8 9 10 11 11 11 11 9
23 26 28 29 32 36 39 36 33 31 31 28 28 26 21 20 18 15 15 13 17 23 22 21 20 20 19 17 16 15 14 13 13 13 12 12 12 13 13 13 13 12 11
25 27 26 27 31 36 39 35 31 30 30 28 27 27 23 19 18 17 15 15 14 17 24 25 24 24 23 23 22 21 20 19 18 18 18 17 17 17 17 17 17 16 15
26 24 25 28 32 35 39 36 32 30 29 28 27 28 24 19 18 16 16 15 15 16 17 23 27 27 27 26 25 24 23 23 22 22 22 22 21 21 21 21 20 19 19

GFSGL_500_spd_027.txt.gz
Wind_Speed
72 72 72 74 76 79 81 84 86 85 87 89 89 87 81 74 67 59 53 50 48 47 48 49 50 50 51 52 52 50 50 59 57 55 59 61 59 64 70 74 76 75 77
77 77 80 80 79 82 85 83 88 89 89 87 86 77 66 57 51 48 46 46 46 46 47 49 50 51 48 47 48 47 47 51 53 61 62 56 63 69 68 69 68 73 73
78 78 79 80 85 85 83 86 87 89 86 84 74 61 52 49 48 48 47 48 47 48 48 48 49 50 49 48 45 45 46 47 49 52 52 55 57 59 65 71 74 68 68
78 79 83 86 85 85 87 86 89 86 80 71 58 54 54 52 51 51 52 51 51 50 48 48 48 47 47 46 46 45 45 45 46 46 45 46 50 55 59 61 63 67 70
76 83 85 84 86 86 84 86 81 74 68 57 52 53 53 54 54 54 55 54 54 53 53 52 51 50 48 47 44 43 44 44 44 43 40 41 44 48 52 55 58 61 62
86 86 84 85 86 84 84 79 73 67 58 52 51 52 54 55 56 57 58 56 54 52 51 52 53 53 52 50 48 45 43 41 41 41 41 43 47 50 51 53 55 57 59
85 85 85 85 83 79 76 70 65 59 52 50 51 54 55 58 59 60 58 55 52 50 48 47 47 48 50 51 49 46 45 44 43 44 44 45 45 45 46 47 48 51 53
85 84 84 81 77 74 70 65 57 53 50 50 53 55 56 62 62 59 55 51 48 46 45 44 43 42 43 44 44 44 42 41 41 42 40 38 37 36 36 37 37 39 40
84 85 79 75 72 67 62 56 52 50 49 51 54 55 59 62 59 54 51 48 44 42 41 40 40 38 37 36 34 35 35 34 35 32 30 27 29 31 34 38 37 42 41
85 79 75 71 66 60 55 51 49 48 49 51 53 57 60 57 52 48 47 44 40 38 36 36 35 33 29 27 26 25 25 26 25 23 21 20 21 23 25 28 31 33 34
82 77 70 65 59 53 51 48 47 47 49 50 53 58 54 49 46 44 43 41 37 32 30 29 29 25 20 19 17 17 18 19 17 13 12 13 13 14 16 17 19 24 27
77 71 67 62 56 51 47 44 44 46 49 49 53 53 46 44 43 39 37 35 30 25 22 21 16 11 9 11 13 14 14 13 10 9 11 11 10 10 13 16 20 24 28
74 70 65 59 52 44 40 39 41 46 46 49 52 46 40 40 37 36 36 31 26 20 14 7 2 2 4 6 8 10 12 10 9 7 4 3 4 8 9 11 14 18 24
69 61 53 45 37 34 33 36 41 44 45 48 48 42 38 38 36 36 31 25 17 10 5 3 2 3 5 5 6 10 10 10 7 5 6 7 9 10 11 13 16 17 18
53 45 37 30 26 30 28 35 41 43 44 47 45 41 36 37 36 30 22 17 12 5 4 2 1 2 2 6 11 10 9 8 9 6 5 7 8 10 13 15 18 21 20
40 32 24 20 29 23 29 36 40 41 43 44 43 39 36 36 32 21 17 12 5 5 6 3 4 2 5 9 9 8 8 7 8 4 3 6 7 9 12 16 20 22 22
24 19 15 24 20 24 31 37 39 40 42 40 38 37 35 32 26 17 17 7 4 6 6 3 3 2 7 8 8 7 6 5 6 4 1 2 5 8 11 15 18 20 23
16 14 20 19 20 27 33 38 38 40 42 39 36 35 33 31 21 17 14 6 5 5 5 2 1 2 5 8 8 7 7 7 7 5 3 1 5 7 10 12 15 17 20
18 21 21 19 23 29 35 37 38 41 40 35 35 34 31 29 21 16 14 9 7 5 4 3 3 4 5 7 8 9 9 9 9 7 4 3 5 7 8 10 12 14 17
23 21 20 22 26 31 34 36 39 41 36 33 33 32 30 28 23 15 13 11 11 9 5 4 4 5 6 6 7 8 9 9 10 8 6 5 6 7 7 8 10 12 13
23 22 23 25 28 31 32 36 40 39 33 31 32 30 30 27 24 18 14 13 16 15 12 8 7 6 5 6 7 7 8 9 10 10 8 7 7 7 8 9 10 11 11
24 23 25 26 29 30 31 35 40 37 32 31 31 28 29 27 24 20 16 14 16 19 18 16 13 11 9 8 7 7 6 6 8 9 9 8 9 10 10 11 11 11 11
25 26 26 27 28 28 32 35 38 38 32 30 30 29 28 28 24 22 18 16 15 18 22 21 20 18 17 15 13 12 11 11 10 11 11 11 10 11 12 13 14 14 13
29 28 27 28 26 28 32 35 37 38 33 30 29 29 28 27 24 21 20 17 15 16 18 24 24 23 23 22 21 19 18 17 16 16 16 16 16 15 15 15 16 17 17
29 27 27 25 25 29 32 34 36 39 35 30 29 29 29 28 24 21 20 19 17 16 17 18 25 27 27 26 26 25 25 24 23 22 21 21 21 21 21 20 21 21 21
27 26 25 25 26 29 31 33 35 38 38 32 29 29 29 28 25 21 20 19 18 17 17 17 18 23 28 30 29 29 28 28 27 26 26 26 26 26 26 25 25 24 23

GFSGL_500_spd_033.txt.gz
Wind_Speed
70 75 79 83 85 85 85 84 83 82 83 84 86 84 82 78 72 68 64 59 53 46 45 46 46 47 48 48 49 50 51 50 44 38 39 46 46 46 44 52 62 65 69
77 81 85 87 88 87 82 84 84 84 84 83 82 80 74 66 62 60 57 51 46 46 47 48 50 51 51 52 52 52 52 52 49 43 39 40 44 46 49 53 51 66 68
82 86 89 90 89 84 81 82 85 85 81 79 75 68 62 58 57 53 49 45 46 49 51 53 53 54 55 56 56 55 54 53 50 48 41 40 42 47 49 50 53 54 62
86 87 87 86 86 83 83 84 84 81 75 68 63 58 56 53 49 46 44 45 48 51 52 54 57 58 57 56 55 53 52 51 50 49 46 42 41 44 48 50 52 54 57
86 86 85 86 84 88 88 90 87 74 66 62 58 54 51 47 46 42 44 48 50 51 55 57 55 52 50 51 52 49 47 47 47 48 46 46 41 41 46 48 49 51 55
87 89 90 92 98 99 92 85 74 68 63 58 53 50 47 44 40 42 46 49 52 55 54 47 45 45 46 47 46 44 44 43 42 43 44 45 43 41 40 42 46 47 49
90 92 93 92 90 85 72 62 68 75 59 56 49 45 41 37 40 44 46 49 53 51 44 39 38 41 43 43 43 40 36 37 37 38 40 41 42 42 40 36 38 41 42
93 91 88 85 80 74 44 66 69 63 52 56 42 37 33 39 44 46 49 51 50 46 43 42 43 42 43 40 36 34 33 32 33 33 35 36 37 38 38 37 34 34 36
89 87 83 78 71 58 47 60 62 52 52 38 34 31 36 41 43 47 49 48 44 42 43 44 42 39 37 35 30 28 26 26 28 28 28 29 30 32 34 35 35 37 38
89 88 79 70 63 37 45 56 58 48 42 32 29 35 39 41 44 47 46 45 41 40 37 36 37 34 29 26 22 21 19 22 22 21 21 22 24 26 28 29 31 29 29
87 80 69 62 55 41 47 51 54 37 28 25 31 38 39 42 46 44 44 40 37 31 29 28 25 21 17 14 11 10 10 13 13 15 16 18 19 20 20 18 19 19 21
79 68 56 51 45 39 38 36 22 22 23 27 35 37 41 45 42 41 39 37 31 27 22 21 21 20 17 13 8 3 3 7 11 13 14 14 14 14 13 13 14 15 16
65 53 46 41 34 26 22 18 20 19 25 32 35 39 42 42 38 38 36 33 28 21 19 20 20 18 17 13 8 2 2 6 9 11 12 11 11 10 10 9 7 4 2
48 39 32 26 23 22 23 22 20 24 29 34 37 41 42 36 35 36 32 27 25 17 19 21 18 18 13 8 6 3 2 5 10 12 10 9 9 11 12 11 8 6 5
35 26 23 25 26 24 23 22 24 28 32 34 39 43 39 34 34 34 29 21 19 14 17 18 16 14 10 8 8 8 5 6 8 9 11 12 14 15 13 10 7 5 4
26 24 25 27 27 25 25 26 28 31 33 35 40 43 38 34 34 33 28 22 18 11 14 15 12 11 8 7 7 8 7 4 9 11 12 12 13 11 9 7 5 3 1
24 24 27 27 26 26 27 27 28 32 32 37 40 42 35 32 31 30 26 20 15 10 10 13 11 8 6 4 4 4 4 5 8 8 9 10 10 8 6 4 3 2 2
24 24 26 28 26 26 28 28 29 30 31 36 39 40 34 30 30 29 26 21 17 11 9 10 10 8 5 4 4 3 1 1 4 7 8 9 8 7 6 5 4 4 5
26 26 27 28 24 27 29 29 30 29 32 36 38 40 35 29 29 29 27 19 16 13 11 10 10 9 7 7 6 5 5 5 5 6 9 10 10 8 8 8 8 8 8
26 26 28 26 25 28 29 28 28 28 32 35 38 40 37 31 29 29 28 23 17 14 12 13 12 11 9 8 7 7 7 7 8 9 10 12 12 13 12 11 10 10 10
26 26 28 26 26 29 28 28 26 27 30 33 36 39 36 31 27 28 28 24 19 15 14 13 16 15 13 11 9 8 7 8 10 10 12 13 13 14 14 13 12 12 13
26 26 26 25 27 28 27 26 26 28 29 31 33 36 37 33 28 27 27 25 21 16 15 15 14 18 18 17 15 13 10 9 8 8 9 10 11 13 14 13 13 14 14
26 25 25 26 27 26 26 26 26 27 27 29 31 33 36 34 29 26 27 26 23 20 16 15 16 16 19 21 21 20 18 16 14 13 13 12 12 12 12 13 13 14 15
26 25 26 26 26 24 25 25 26 25 26 27 29 32 34 36 32 28 26 26 25 22 19 17 15 16 17 20 23 24 24 23 22 21 20 18 18 17 18 18 18 19 19
26 26 27 24 24 24 25 25 25 25 26 27 28 31 34 35 36 31 27 26 26 24 21 18 17 16 16 17 19 23 26 26 25 25 25 24 24 24 23 23 24 24 24
25 24 23 23 24 24 25 26 27 27 27 29 30 31 32 33 34 36 31 27 26 25 23 20 17 17 16 15 16 17 19 22 25 27 27 27 26 26 26 27 28 28 29

GFSGL_500_spd_036.txt.gz
Wind_Speed
61 66 71 77 81 85 88 89 88 88 88 88 86 86 85 81 74 69 66 63 62 60 58 55 51 48 48 49 50 52 52 54 52 48 47 46 45 47 48 47 49 54 64
66 71 77 82 86 89 88 88 88 88 87 87 86 83 72 63 64 62 58 58 56 54 51 48 47 47 49 51 53 54 54 55 56 53 50 50 49 47 48 49 53 51 52
74 78 82 86 87 87 86 86 87 90 94 89 79 64 64 68 67 60 55 53 51 49 47 47 48 51 52 54 56 57 58 58 59 57 53 53 52 50 49 50 51 56 54
77 80 84 86 87 87 90 94 97 94 86 74 66 61 65 75 60 52 47 46 44 45 47 49 51 53 56 57 55 52 51 51 52 52 52 51 52 52 51 50 51 52 60
79 82 84 89 91 94 95 95 93 84 72 55 57 60 67 63 55 43 40 40 42 46 49 51 54 55 54 52 49 42 41 42 45 46 47 49 47 48 50 51 49 51 53
83 88 91 91 94 95 95 92 80 70 53 54 56 61 64 57 42 36 36 41 45 48 50 53 52 50 48 47 45 46 46 44 42 42 42 44 44 45 47 49 47 48 49
87 88 90 91 93 93 88 77 68 55 41 53 59 61 61 42 36 37 41 44 47 50 50 50 48 45 44 44 45 46 45 43 41 38 37 37 40 42 42 45 47 45 45
87 87 89 91 89 85 77 66 57 36 39 43 54 60 50 35 38 42 45 47 50 48 49 47 44 42 41 40 39 37 37 37 36 34 32 33 36 36 36 41 44 43 40
85 87 89 90 87 78 64 55 50 43 46 46 54 47 33 36 41 44 46 48 45 46 44 41 40 34 31 31 31 30 30 32 30 28 27 28 29 29 31 35 39 40 39
86 88 89 87 76 60 50 44 38 32 34 35 28 28 33 38 42 45 47 42 43 40 35 34 30 28 27 26 24 22 21 22 22 22 21 20 22 24 26 29 34 36 37
86 88 84 72 56 43 36 29 23 22 22 23 25 31 37 39 44 46 41 41 40 33 30 25 27 29 27 25 20 17 15 13 12 11 11 14 18 20 21 23 26 28 31
86 83 71 54 38 28 28 28 27 26 25 26 31 35 37 42 45 41 39 40 38 28 23 22 26 26 26 24 18 13 11 8 3 4 8 11 14 15 16 17 19 20 21
82 71 58 40 28 28 30 29 28 28 28 30 34 35 39 43 42 36 37 39 36 26 20 22 24 24 22 17 13 10 8 6 1 6 9 11 12 13 13 14 15 15 14
70 60 44 31 27 29 30 28 28 29 30 33 34 36 39 42 40 35 35 35 33 25 19 20 22 20 16 13 12 10 7 4 1 5 8 11 12 12 11 10 10 11 10
60 49 35 27 27 29 29 28 28 29 31 33 34 37 39 41 39 34 35 34 29 22 18 17 18 16 13 11 11 12 10 5 2 5 7 9 10 11 12 13 13 12 10
51 39 30 26 26 28 28 26 27 29 32 34 33 37 39 41 39 33 33 33 29 21 16 14 14 13 11 10 10 10 10 5 4 7 8 9 10 12 13 12 11 10 8
43 34 27 25 26 28 26 26 29 31 32 33 34 36 39 40 37 32 31 31 28 20 15 12 12 12 9 8 8 8 7 4 4 3 3 6 9 10 9 9 9 8 7
38 31 27 26 26 27 25 26 29 29 31 31 33 35 38 39 36 31 29 29 27 22 15 13 11 10 9 8 7 6 5 3 0 1 2 4 6 7 7 7 7 7 6
36 30 27 25 25 26 25 27 29 28 28 29 31 33 36 38 37 32 27 28 26 21 17 14 14 12 10 9 9 8 7 6 4 5 6 7 8 9 8 8 9 8 8
34 30 27 25 25 25 25 27 28 27 27 28 30 31 33 36 37 34 28 27 27 23 19 16 15 16 14 11 10 9 9 9 8 8 9 10 11 12 13 13 12 12 11
33 29 26 26 24 24 26 27 26 25 26 27 28 29 31 33 35 35 30 27 27 24 20 18 17 17 19 17 14 12 10 10 10 11 12 13 14 15 15 15 16 15 14
31 29 26 24 25 25 25 25 24 25 25 26 27 28 30 31 33 35 34 29 27 25 22 19 17 17 18 21 21 18 16 14 12 11 11 12 13 15 16 16 17 17 17
29 28 26 24 24 26 25 23 23 24 25 25 26 28 29 30 32 34 35 33 28 26 24 21 18 17 18 20 22 24 22 21 19 17 15 14 13 14 14 14 15 15 16
28 27 26 24 24 25 23 23 23 24 25 26 27 28 30 30 31 32 34 35 33 27 25 23 21 19 17 18 20 22 26 26 25 24 22 21 20 19 19 18 18 19 20
26 26 26 26 24 23 24 24 24 25 26 26 27 29 30 30 31 32 33 34 35 32 27 25 23 20 19 18 18 20 22 24 27 28 27 27 26 25 25 25 24 24 25
27 26 26 25 26 27 26 26 26 27 27 27 27 28 30 30 32 32 32 33 33 34 30 26 24 22 20 19 18 18 18 20 21 24 27 28 29 28 28 28 28 28 28